THOR ABLESTAR DEB, 420

Orbit data source: Space-Track

THOR ABLESTAR DEB, 420 is space debris in LEO originally from a launch on Thu, 29 Jun 1961 UTC launched from the Air Force Eastern Test Range (AFETR). Debris objects in space refer to the collection of defunct objects orbiting the Earth. Examples of debris include non-operational satellites, rocket bodies, and fragments generated from explosions, collisions, or faulty payload assembly.

Loading next visibility...
Identifier
420, 1961-015EV
Orbit
LEO
Country
Flag of USUS
Related business
Manufacturer
Unknown
Mission
Spacecraft
Bus & Motor
Unknown
Mass
Unknown
Launch date (UTC)
1961-06-29 (64 years ago)
Launch vehicle
Unknown
Launch site
Air Force Eastern Test Range (AFETR)
Object type
Payload
Rocket body
Debris
Shape & HBR
Unknown shape, 0.1 m
Radar Cross Section
Small (<0.1 m²)

Expand to show TLE details & history
Last TLE update: 21 hours ago

TLE from 21 hours ago
0 THOR ABLESTAR DEB
1 00420U 61015EV  25340.61949432  .00001804  00000-0  65437-3 0  9992
2 00420  66.8140  61.5716 0084119 348.6892  11.2315 14.33626826325972
Epoch: 2025-12-06T14:52Z
TLE epoch observation values (Epoch: 2025-12-06T14:52:04.309Z)
Latitude
-0.00002°
Longitude
122.90901°
Altitude
722.708 km
Speed
7.525 km/s
True Right ascension
04h 06m 17s
True Declination
0° 00' 00"
Sunlit
Object was in full shadow at epoch
Visualization orbit readout
Latitude
Unknown
Longitude
Unknown
Altitude
Unknown
Speed
Unknown
Apparent Right ascension
Unknown
Apparent Declination
Unknown
Sunlit
N/A
Visualization observer readout
Local Sidereal Time
10:15:05
Azimuth
Unknown
Elevation
Unknown
Doppler factor
Unknown
Orbital elements
Apogee altitude
838.189 km
Perigee altitude
717.795 km
Semi-major axis
7,156.129 km
Eccentricity
0.00841
Inclination
66.814°
RAAN
61.5716°
Arg. of periapsis
348.6892°
True anomaly
11.4212°
Mean anomaly
11.2315°
Eccentric anomaly
11.32616°
Mean motion
3.5853 °/min
Orbital period
100.41 mins
BSTAR
0.00065437

Documentation

Showing up to 5 results
|